Regional Weather Roundup
Issued by NWS

Home | Current Version | Previous Version | Graphics & Text | Print | Product List | Glossary On
Versions: 1 2 3 4 5 6 7 8 9 10 11 12 13 14 15 16 17 18 19 20 21 22 23 24 25 26 27 28 29 30 31 32 33 34 35 36 37 38 39 40 41 42 43 44 45 46 47 48 49 50
000
ASUS43 KDTX 020810
RWRMI
MICHIGAN HOURLY REGIONAL WEATHER ROUNDUP
NATIONAL WEATHER SERVICE DETROIT/PONTIAC MI
400 AM EDT WED SEP 02 2015

NOTE: "FAIR" INDICATES FEW OR NO CLOUDS BELOW 12,000 FEET WITH NO
SIGNIFICANT WEATHER AND/OR OBSTRUCTION TO VISIBILITY.

MIZ047>049-052>055-059>063-066>070-074>076-081>083-020900-
SOUTHEAST LOWER MICHIGAN

CITY           SKY/WX    TMP DP  RH WIND       PRES   REMARKS
ADRIAN         CLEAR     68  66  93 SW3       30.07S FOG
ALMA           CLEAR     70  69  96 S3        30.03S FOG
ANN ARBOR      CLEAR     65  65 100 CALM      30.05F FOG
BAD AXE        CLEAR     66  65  97 CALM      30.03F FOG
DETROIT CITY   CLEAR     74  68  81 W5        30.04F
DETROIT        CLEAR     72  68  87 SW3       30.05S
FLINT          CLEAR     72  66  81 S3        30.04F
GROSSE ILE     CLEAR     72  68  88 CALM      30.04S
HILLSDALE      CLEAR     72  71  96 W3        30.07F
HOWELL         CLEAR     71  69  94 CALM      30.05S

CITY           SKY/WX    TMP DP  RH WIND       PRES   REMARKS
JACKSON        CLEAR     69  68  96 SW5       30.06S
LAMBERTVILLE   CLEAR     70  66  86 CALM      30.07S
LANSING        CLEAR     73  68  84 SW7       30.04F
LAPEER         NOT AVBL
MASON          CLEAR     69  66  89 CALM      30.05F FOG
MT. CLEMENS    CLEAR     68  67  96 SW3       30.02S FOG
PONTIAC        CLEAR     70  67  90 CALM      30.05S
PORT HOPE        N/A     72  68  87 SW6       30.00S
PORT HURON     FOG       63  63 100 CALM      30.04S VSB 1/4
TRI CITIES     CLEAR     73  69  87 S6        30.02F
YPSILANTI      CLEAR     71  67  87 CALM      30.06S FOG
$$
MIZ043>046-050>051-056>058-064>065-071>073-077>080-020900-
SOUTHWEST LOWER MICHIGAN

CITY           SKY/WX    TMP DP  RH WIND       PRES   REMARKS
BATTLE CREEK   PTCLDY    73  69  87 S3        30.06S
BENTON HARBOR  PTCLDY    72  68  87 CALM      30.03S
BIG RAPIDS     PTCLDY    68  68 100 CALM      30.01S FOG
COLDWATER      CLEAR     69  68  97 CALM      30.06F
HOLLAND        CLEAR     76  70  82 SW10      30.02S
GRAND RAPIDS   MOCLDY    73  71  93 S6        30.02F
KALAMAZOO      CLEAR     71  67  87 S5        30.05S
MARSHALL       CLEAR     69  68  96 CALM      30.06S
MUSKEGON         N/A     75  70  84 SW13G22   29.99F
$$
MIZ016>042-020900-
NORTHERN LOWER MICHIGAN

CITY           SKY/WX    TMP DP  RH WIND       PRES   REMARKS
ALPENA         PTCLDY    69  66  90 CALM      29.98F FOG
BEAVER ISLAND  PTCLDY    71  68  91 SW8       29.95F
BELLAIRE       MOCLDY    70  67  93 CALM      29.97S FOG
CADILLAC       FOG       66  65  97 CALM      30.02S VSB<1/4
CHARLEVOIX     PTCLDY    74  71  90 S6        29.98S
FRANKFORT      MOSUNNY   73  70  90 CALM      29.96F
GAYLORD        PTCLDY    71  70  96 S5        30.00F FOG
GRAYLING         N/A     64  64  97 CALM      30.01S FOG
HARBOR SPRINGS PTCLDY    69  67  96 CALM      29.96S FOG
HOUGHTON LAKE  CLEAR     70  69  97 S6        30.02F FOG
MANISTEE       PTCLDY    70  64  83 E5        29.98F
OSCODA         CLEAR     70  69  96 SW5       29.98F FOG
PELLSTON       PTCLDY    68  67  96 SE3       29.96S FOG
TRAVERSE CITY  PTCLDY    74  69  85 CALM      29.96S
$$
MIZ007>008-015-020900-
EASTERN UPPER MICHIGAN

CITY           SKY/WX    TMP DP  RH WIND       PRES   REMARKS
KINROSS        CLOUDY    68  68 100 SW3       29.95F VSB 3/4
MACKINAC ISLAN PTCLDY    67  66  96 CALM      29.96S FOG
NEWBERRY       MOCLDY    66  66 100 CALM      29.95S FOG
S. S. MARIE    PTCLDY    68  66  93 CALM      29.95S FOG
$$
MIZ004>006-011>014-085-020900-
CENTRAL UPPER MICHIGAN

CITY           SKY/WX    TMP DP  RH WIND       PRES   REMARKS
MANISTIQUE     CLOUDY    65  64  97 CALM      29.94S FOG
ESCANABA       MOCLDY    64  63  94 CALM      29.93S
MENOMINEE      PTCLDY    72  68  88 W3        29.93S
SAWYER-GWINN   CLEAR     66  65  94 CALM      29.97R FOG
$$
MIZ001>003-009>011-084-020900-
WESTERN UPPER MICHIGAN

CITY           SKY/WX    TMP DP  RH WIND       PRES   REMARKS
IRON MOUNTAIN  PTCLDY    67  65  93 CALM      29.95S FOG
HOUGHTON       FOG       59  57  93 N5        29.94F VSB 1
IRONWOOD         N/A     64  63  94 CALM      29.93S VSB 1/2
$$

ABBREVIATIONS USED IN REMARKS
   TC - TEMPERATURE IN CELSIUS
  WCI - WIND CHILL INDEX
   HX - HEAT INDEX
  VSB - VISIBILITY



USA.gov is the U.S. government's official web portal to all federal, state and local government web resources and services.